STARLINK-3127 (49450 NORAD) Tracking and Keplerian Element Data

This shows tracking and keplerian element data for the satellite.

Feedback or suggestion? Click here.




ElementValue
Catalog49450
NameSTARLINK-3127
Epoch Orbit479
Epoch Day339.91667824
Epoch Year2021
RAAN22.2143
Inclination53.2187
Eccentricity0.0002041
Argument of Perigee46.3502
Mean Anonmoly33.89
Mean Motion15.73243285
Decay Rate-0.00032605
L11 49450U 21104AU 21339.91667824 -.00032605 00000+0 -22834-3 0 9990
L22 49450 53.2187 22.2143 0002041 46.3502 33.8900 15.73243285 4794

Live tracking and technical data element details for STARLINK-3127 (NORAD 49450). STARLINK-3127 can be tracked NOW for your location showing map with azimuth and elevation plus other details from your city location.

Track the satellite on the map from your city or location and see movement details for azimuth, elevation, latitude, longitude, range, height, and movement on the map or in text.







IsCatalogInMostPopularTable: catalog: 49450, numindb: 2
Update: records affected: 1



GetName: 49450 STARLINK-3127

Hit Count: updated at: Wed, 08 Dec 2021 15:03:55 GMT